Time,TemperatureF,DewpointF,PressureIn,WindDirection,WindDirectionDegrees,WindSpeedMPH,WindSpeedGustMPH,Humidity,HourlyPrecipIn,Conditions,Clouds,dailyrainin,SoftwareType,DateUTC
2013-01-12 00:00:00,49.6,43.7,30.21,East,94,0.0,0.0,80,0.00,,SKC,0.00,VWS V14.01,2013-01-12 05:00:00,
2013-01-12 00:01:00,49.6,43.7,30.21,East,93,0.0,0.0,80,0.00,,SKC,0.00,VWS V14.01,2013-01-12 05:01:00,
2013-01-12 00:03:00,49.6,43.7,30.21,East,94,0.0,0.0,80,0.00,,SKC,0.00,VWS V14.01,2013-01-12 05:03:00,
2013-01-12 00:05:00,49.6,43.7,30.21,East,94,0.0,0.0,80,0.00,,SKC,0.00,VWS V14.01,2013-01-12 05:05:00,
2013-01-12 00:09:00,49.6,43.7,30.21,East,94,0.0,0.0,80,0.00,,SKC,0.00,VWS V14.01,2013-01-12 05:09:00,
2013-01-12 00:14:00,49.6,43.7,30.21,East,94,0.0,0.0,80,0.00,,SKC,0.00,VWS V14.01,2013-01-12 05:14:00,
2013-01-12 00:20:00,49.6,43.7,30.21,East,94,0.0,0.0,80,0.00,,SKC,0.00,VWS V14.01,2013-01-12 05:20:00,
2013-01-12 00:25:00,49.6,43.7,30.21,East,94,0.0,0.0,80,0.00,,SKC,0.00,VWS V14.01,2013-01-12 05:25:00,
2013-01-12 00:30:00,49.6,43.7,30.21,East,94,0.0,0.0,80,0.00,,SKC,0.00,VWS V14.01,2013-01-12 05:30:00,
2013-01-12 00:31:00,49.6,43.7,30.21,East,94,0.0,0.0,80,0.00,,SKC,0.00,VWS V14.01,2013-01-12 05:31:00,
2013-01-12 00:36:00,49.7,43.8,30.21,East,94,0.0,0.0,80,0.00,,SKC,0.00,VWS V14.01,2013-01-12 05:36:00,
2013-01-12 00:41:00,49.7,43.8,30.21,East,94,0.0,0.0,80,0.00,,SKC,0.00,VWS V14.01,2013-01-12 05:41:00,
2013-01-12 00:47:00,49.7,43.8,30.21,East,94,0.0,0.0,80,0.00,,SKC,0.00,VWS V14.01,2013-01-12 05:47:00,
2013-01-12 00:52:00,49.7,43.8,30.21,East,94,0.0,0.0,80,0.00,,SKC,0.00,VWS V14.01,2013-01-12 05:52:00,
2013-01-12 00:58:00,49.7,43.8,30.21,East,94,0.0,0.0,80,0.00,,SKC,0.00,VWS V14.01,2013-01-12 05:58:00,
2013-01-12 01:00:00,49.7,43.8,30.21,East,93,0.0,0.0,80,0.00,,SKC,0.00,VWS V14.01,2013-01-12 06:00:00,
2013-01-12 01:03:00,49.8,43.9,30.21,East,93,0.0,0.0,80,0.00,,SKC,0.00,VWS V14.01,2013-01-12 06:03:00,
2013-01-12 01:08:00,49.8,43.9,30.21,East,93,0.0,0.0,80,0.00,,SKC,0.00,VWS V14.01,2013-01-12 06:08:00,
2013-01-12 01:14:00,49.8,43.9,30.21,East,93,0.0,0.0,80,0.01,,SKC,0.01,VWS V14.01,2013-01-12 06:14:00,
2013-01-12 01:19:00,49.8,43.9,30.21,East,94,0.0,0.0,80,0.01,,SKC,0.01,VWS V14.01,2013-01-12 06:19:00,
2013-01-12 01:25:00,49.8,43.9,30.21,East,94,0.0,0.0,80,0.01,,SKC,0.01,VWS V14.01,2013-01-12 06:25:00,
2013-01-12 01:30:00,49.8,43.9,30.20,East,94,0.0,0.0,80,0.01,,SKC,0.01,VWS V14.01,2013-01-12 06:30:00,
2013-01-12 01:36:00,49.8,43.9,30.20,East,94,0.0,0.0,80,0.01,,SKC,0.01,VWS V14.01,2013-01-12 06:36:00,
2013-01-12 01:41:00,49.8,43.9,30.21,East,94,0.0,0.0,80,0.01,,SKC,0.01,VWS V14.01,2013-01-12 06:41:00,
2013-01-12 01:47:00,49.9,44.0,30.20,East,94,0.0,0.0,80,0.01,,SKC,0.01,VWS V14.01,2013-01-12 06:47:00,
2013-01-12 01:52:00,49.9,44.0,30.21,East,93,0.0,0.0,80,0.01,,SKC,0.01,VWS V14.01,2013-01-12 06:52:00,
2013-01-12 01:57:00,50.0,44.1,30.21,East,94,0.0,0.0,80,0.01,,SKC,0.01,VWS V14.01,2013-01-12 06:57:00,
2013-01-12 02:00:00,50.0,44.1,30.21,East,94,0.0,0.0,80,0.01,,SKC,0.01,VWS V14.01,2013-01-12 07:00:00,
2013-01-12 02:03:00,50.0,44.1,30.20,East,94,0.0,0.0,80,0.01,,SKC,0.01,VWS V14.01,2013-01-12 07:03:00,
2013-01-12 02:08:00,50.1,44.2,30.21,East,94,0.0,0.0,80,0.01,,SKC,0.01,VWS V14.01,2013-01-12 07:08:00,
2013-01-12 02:14:00,50.1,44.2,30.21,East,93,0.0,0.0,80,0.01,,SKC,0.01,VWS V14.01,2013-01-12 07:14:00,
2013-01-12 02:19:00,50.2,44.3,30.21,East,94,0.0,0.0,80,0.01,,SKC,0.01,VWS V14.01,2013-01-12 07:19:00,
2013-01-12 02:25:00,50.2,44.3,30.21,East,94,0.0,0.0,80,0.01,,SKC,0.01,VWS V14.01,2013-01-12 07:25:00,
2013-01-12 02:30:00,50.2,44.3,30.21,East,94,0.0,0.0,80,0.00,,SKC,0.01,VWS V14.01,2013-01-12 07:30:00,
2013-01-12 02:35:00,50.3,44.4,30.20,East,93,0.0,0.0,80,0.00,,SKC,0.01,VWS V14.01,2013-01-12 07:35:00,
2013-01-12 02:41:00,50.4,44.5,30.20,East,94,0.0,0.0,80,0.00,,SKC,0.01,VWS V14.01,2013-01-12 07:41:00,
2013-01-12 02:46:00,50.4,44.8,30.21,East,94,0.0,0.0,81,0.00,,SKC,0.01,VWS V14.01,2013-01-12 07:46:00,
2013-01-12 02:52:00,50.5,44.9,30.21,East,93,0.0,0.0,81,0.00,,SKC,0.01,VWS V14.01,2013-01-12 07:52:00,
2013-01-12 02:57:00,50.6,45.0,30.21,East,94,0.0,0.0,81,0.00,,SKC,0.01,VWS V14.01,2013-01-12 07:57:00,
2013-01-12 03:00:00,50.6,45.0,30.21,East,94,0.0,0.0,81,0.00,,SKC,0.01,VWS V14.01,2013-01-12 08:00:00,
2013-01-12 03:02:00,50.6,45.0,30.21,East,93,0.0,0.0,81,0.00,,SKC,0.01,VWS V14.01,2013-01-12 08:02:00,
2013-01-12 03:08:00,50.7,45.1,30.21,East,94,0.0,0.0,81,0.00,,SKC,0.01,VWS V14.01,2013-01-12 08:08:00,
2013-01-12 03:13:00,50.7,45.1,30.21,East,94,0.0,0.0,81,0.00,,SKC,0.01,VWS V14.01,2013-01-12 08:13:00,
2013-01-12 03:19:00,50.7,45.1,30.20,East,94,0.0,0.0,81,0.00,,SKC,0.01,VWS V14.01,2013-01-12 08:19:00,
2013-01-12 03:24:00,50.8,45.2,30.20,East,94,0.0,0.0,81,0.00,,SKC,0.01,VWS V14.01,2013-01-12 08:24:00,
2013-01-12 03:29:00,50.8,45.2,30.20,East,94,0.0,0.0,81,0.00,,SKC,0.01,VWS V14.01,2013-01-12 08:29:00,
2013-01-12 03:30:00,50.8,45.2,30.20,East,94,0.0,0.0,81,0.00,,SKC,0.01,VWS V14.01,2013-01-12 08:30:00,
2013-01-12 03:35:00,50.8,45.2,30.20,East,93,0.0,0.0,81,0.00,,SKC,0.01,VWS V14.01,2013-01-12 08:35:00,
2013-01-12 03:40:00,50.8,44.9,30.20,East,94,0.0,0.0,80,0.00,,SKC,0.01,VWS V14.01,2013-01-12 08:40:00,
2013-01-12 03:46:00,50.8,44.9,30.20,East,94,0.0,0.0,80,0.00,,SKC,0.01,VWS V14.01,2013-01-12 08:46:00,
2013-01-12 03:51:00,50.8,44.9,30.19,East,94,0.0,0.0,80,0.00,,SKC,0.01,VWS V14.01,2013-01-12 08:51:00,
2013-01-12 03:57:00,50.8,44.9,30.19,ESE,108,0.0,0.0,80,0.00,,SKC,0.01,VWS V14.01,2013-01-12 08:57:00,
2013-01-12 04:00:00,50.8,44.9,30.19,ESE,107,0.0,0.0,80,0.00,,SKC,0.01,VWS V14.01,2013-01-12 09:00:00,
2013-01-12 04:02:00,50.8,44.9,30.19,ESE,108,0.0,0.0,80,0.00,,SKC,0.01,VWS V14.01,2013-01-12 09:02:00,
2013-01-12 04:08:00,50.8,44.9,30.19,ESE,108,0.0,0.0,80,0.00,,SKC,0.01,VWS V14.01,2013-01-12 09:08:00,
2013-01-12 04:13:00,50.8,44.9,30.19,ESE,108,0.0,0.0,80,0.00,,SKC,0.01,VWS V14.01,2013-01-12 09:13:00,
2013-01-12 04:18:00,50.8,44.9,30.19,ESE,107,0.0,0.0,80,0.00,,SKC,0.01,VWS V14.01,2013-01-12 09:18:00,
2013-01-12 04:24:00,50.9,45.3,30.19,ESE,108,0.0,0.0,81,0.00,,SKC,0.01,VWS V14.01,2013-01-12 09:24:00,
2013-01-12 04:29:00,50.8,45.2,30.19,ESE,107,0.0,0.0,81,0.00,,SKC,0.01,VWS V14.01,2013-01-12 09:29:00,
2013-01-12 04:30:00,50.8,45.2,30.19,ESE,107,0.0,0.0,81,0.00,,SKC,0.01,VWS V14.01,2013-01-12 09:30:00,
2013-01-12 04:35:00,50.9,45.0,30.19,ESE,107,0.0,0.0,80,0.00,,SKC,0.01,VWS V14.01,2013-01-12 09:35:00,
2013-01-12 04:40:00,50.8,44.9,30.19,ESE,108,0.0,0.0,80,0.00,,SKC,0.01,VWS V14.01,2013-01-12 09:40:00,
2013-01-12 04:46:00,50.8,44.9,30.19,ESE,108,0.0,0.0,80,0.00,,SKC,0.01,VWS V14.01,2013-01-12 09:46:00,
2013-01-12 04:51:00,50.8,44.9,30.18,South,184,0.0,0.0,80,0.00,,SKC,0.01,VWS V14.01,2013-01-12 09:51:00,
2013-01-12 04:56:00,50.8,44.9,30.18,South,184,0.0,0.0,80,0.00,,SKC,0.01,VWS V14.01,2013-01-12 09:56:00,
2013-01-12 05:00:00,50.8,44.9,30.18,South,184,0.0,0.0,80,0.00,,SKC,0.01,VWS V14.01,2013-01-12 10:00:00,
2013-01-12 05:02:00,50.8,44.9,30.18,South,184,0.0,0.0,80,0.00,,SKC,0.01,VWS V14.01,2013-01-12 10:02:00,
2013-01-12 05:07:00,50.9,45.3,30.18,South,184,0.0,0.0,81,0.00,,SKC,0.01,VWS V14.01,2013-01-12 10:07:00,
2013-01-12 05:13:00,50.9,45.3,30.17,South,184,0.0,0.0,81,0.00,,SKC,0.01,VWS V14.01,2013-01-12 10:13:00,
2013-01-12 05:18:00,50.9,45.3,30.17,SSW,194,0.0,0.0,81,0.00,,SKC,0.01,VWS V14.01,2013-01-12 10:18:00,
2013-01-12 05:23:00,51.0,45.4,30.17,SSW,194,0.0,0.0,81,0.00,,SKC,0.01,VWS V14.01,2013-01-12 10:23:00,
2013-01-12 05:29:00,51.0,45.4,30.17,SSW,205,0.0,0.0,81,0.00,,SKC,0.01,VWS V14.01,2013-01-12 10:29:00,
2013-01-12 05:30:00,51.0,45.4,30.17,SSW,205,0.0,0.0,81,0.00,,SKC,0.01,VWS V14.01,2013-01-12 10:30:00,
2013-01-12 05:34:00,51.1,45.5,30.17,SSW,211,0.0,1.0,81,0.00,,SKC,0.01,VWS V14.01,2013-01-12 10:34:00,
2013-01-12 05:40:00,51.2,45.9,30.17,SSW,211,0.0,1.0,82,0.00,,SKC,0.01,VWS V14.01,2013-01-12 10:40:00,
2013-01-12 05:45:00,51.8,46.5,30.17,SE,131,0.0,1.0,82,0.00,,SKC,0.01,VWS V14.01,2013-01-12 10:45:00,
2013-01-12 05:51:00,52.2,47.2,30.17,SE,139,0.0,1.0,83,0.00,,SKC,0.01,VWS V14.01,2013-01-12 10:51:00,
2013-01-12 05:56:00,52.6,47.6,30.17,West,263,1.0,1.0,83,0.00,,SKC,0.01,VWS V14.01,2013-01-12 10:56:00,
2013-01-12 06:00:00,52.9,48.2,30.17,West,264,0.0,1.0,84,0.00,,SKC,0.01,VWS V14.01,2013-01-12 11:00:00,
2013-01-12 06:01:00,53.1,48.4,30.17,WNW,283,1.0,1.0,84,0.00,,SKC,0.01,VWS V14.01,2013-01-12 11:01:00,
2013-01-12 06:07:00,53.3,48.6,30.17,WNW,294,0.0,1.0,84,0.00,,SKC,0.01,VWS V14.01,2013-01-12 11:07:00,
2013-01-12 06:12:00,53.4,48.7,30.17,West,274,0.0,1.0,84,0.00,,SKC,0.01,VWS V14.01,2013-01-12 11:12:00,
2013-01-12 06:18:00,53.4,48.7,30.17,SSW,198,0.0,1.0,84,0.00,,SKC,0.01,VWS V14.01,2013-01-12 11:18:00,
2013-01-12 06:23:00,53.5,48.8,30.17,SSW,198,0.0,1.0,84,0.00,,SKC,0.01,VWS V14.01,2013-01-12 11:23:00,
2013-01-12 06:29:00,54.0,49.6,30.17,WNW,290,0.0,2.0,85,0.00,,SKC,0.01,VWS V14.01,2013-01-12 11:29:00,
2013-01-12 06:30:00,54.1,49.7,30.18,WNW,289,0.0,2.0,85,0.00,,SKC,0.01,VWS V14.01,2013-01-12 11:30:00,
2013-01-12 06:34:00,54.0,49.3,30.18,SSE,159,0.0,1.0,84,0.00,,SKC,0.01,VWS V14.01,2013-01-12 11:34:00,
2013-01-12 06:39:00,53.6,48.9,30.18,SSE,159,0.0,1.0,84,0.00,,SKC,0.01,VWS V14.01,2013-01-12 11:39:00,
2013-01-12 06:45:00,53.4,48.7,30.18,SSE,160,0.0,1.0,84,0.00,,SKC,0.01,VWS V14.01,2013-01-12 11:45:00,
2013-01-12 06:50:00,53.5,48.8,30.18,SSE,159,0.0,1.0,84,0.00,,SKC,0.01,VWS V14.01,2013-01-12 11:50:00,
2013-01-12 06:56:00,53.7,49.0,30.18,East,101,2.0,2.0,84,0.00,,SKC,0.01,VWS V14.01,2013-01-12 11:56:00,
2013-01-12 07:00:00,53.9,49.2,30.18,SSW,199,2.0,2.0,84,0.00,,SKC,0.01,VWS V14.01,2013-01-12 12:00:00,
2013-01-12 07:01:00,53.9,49.5,30.18,SW,226,0.0,2.0,85,0.00,,SKC,0.01,VWS V14.01,2013-01-12 12:01:00,
2013-01-12 07:07:00,54.0,49.3,30.19,SW,226,0.0,2.0,84,0.00,,SKC,0.01,VWS V14.01,2013-01-12 12:07:00,
2013-01-12 07:12:00,54.1,49.7,30.19,SW,226,0.0,2.0,85,0.00,,SKC,0.01,VWS V14.01,2013-01-12 12:12:00,
2013-01-12 07:17:00,54.2,49.8,30.19,SW,226,0.0,2.0,85,0.00,,SKC,0.01,VWS V14.01,2013-01-12 12:17:00,
2013-01-12 07:23:00,54.3,49.9,30.19,SW,226,0.0,2.0,85,0.00,,SKC,0.01,VWS V14.01,2013-01-12 12:23:00,
2013-01-12 07:28:00,54.4,50.0,30.19,SW,226,0.0,2.0,85,0.00,,SKC,0.01,VWS V14.01,2013-01-12 12:28:00,
2013-01-12 07:30:00,54.4,50.0,30.19,SW,226,0.0,2.0,85,0.00,,SKC,0.01,VWS V14.01,2013-01-12 12:30:00,
2013-01-12 07:34:00,54.5,50.1,30.19,NW,321,0.0,0.0,85,0.00,,SKC,0.01,VWS V14.01,2013-01-12 12:34:00,
2013-01-12 07:39:00,54.6,50.2,30.19,NW,321,0.0,0.0,85,0.00,,SKC,0.01,VWS V14.01,2013-01-12 12:39:00,
2013-01-12 07:44:00,54.8,50.4,30.19,NW,321,0.0,0.0,85,0.00,,SKC,0.01,VWS V14.01,2013-01-12 12:44:00,
2013-01-12 07:50:00,54.8,50.4,30.19,NW,321,0.0,0.0,85,0.00,,SKC,0.01,VWS V14.01,2013-01-12 12:50:00,
2013-01-12 07:55:00,54.6,49.9,30.19,NW,322,0.0,0.0,84,0.00,,SKC,0.01,VWS V14.01,2013-01-12 12:55:00,
2013-01-12 08:00:00,54.5,49.8,30.19,NW,321,0.0,0.0,84,0.00,,SKC,0.01,VWS V14.01,2013-01-12 13:00:00,
2013-01-12 08:01:00,54.5,49.8,30.19,NW,322,0.0,0.0,84,0.00,,SKC,0.01,VWS V14.01,2013-01-12 13:01:00,
2013-01-12 08:06:00,54.4,49.7,30.19,NW,321,0.0,0.0,84,0.00,,SKC,0.01,VWS V14.01,2013-01-12 13:06:00,
2013-01-12 08:12:00,54.3,49.6,30.19,NW,322,0.0,0.0,84,0.00,,SKC,0.01,VWS V14.01,2013-01-12 13:12:00,
2013-01-12 08:17:00,54.4,49.7,30.19,NW,322,0.0,0.0,84,0.00,,SKC,0.01,VWS V14.01,2013-01-12 13:17:00,
2013-01-12 08:22:00,54.7,50.0,30.19,NW,322,0.0,0.0,84,0.00,,SKC,0.01,VWS V14.01,2013-01-12 13:22:00,
2013-01-12 08:28:00,55.0,50.3,30.20,NW,322,0.0,0.0,84,0.00,,SKC,0.01,VWS V14.01,2013-01-12 13:28:00,
2013-01-12 08:30:00,55.0,50.3,30.20,NW,322,0.0,0.0,84,0.00,,SKC,0.01,VWS V14.01,2013-01-12 13:30:00,
2013-01-12 08:33:00,55.1,50.4,30.20,NW,322,0.0,0.0,84,0.00,,SKC,0.01,VWS V14.01,2013-01-12 13:33:00,
2013-01-12 08:39:00,55.2,50.5,30.20,NW,322,0.0,0.0,84,0.00,,SKC,0.01,VWS V14.01,2013-01-12 13:39:00,
2013-01-12 08:44:00,55.2,50.5,30.20,NW,322,0.0,0.0,84,0.00,,SKC,0.01,VWS V14.01,2013-01-12 13:44:00,
2013-01-12 08:50:00,55.2,50.5,30.20,NW,322,0.0,0.0,84,0.00,,SKC,0.01,VWS V14.01,2013-01-12 13:50:00,
2013-01-12 08:55:00,55.2,50.1,30.20,NW,322,0.0,0.0,83,0.00,,SKC,0.01,VWS V14.01,2013-01-12 13:55:00,
2013-01-12 09:00:00,58.4,53.3,30.21,SW,214,1.0,1.0,83,0.00,,SKC,0.01,VWS V14.01,2013-01-12 14:00:00,
2013-01-12 09:01:00,55.3,50.2,30.20,NW,322,0.0,0.0,83,0.00,,SKC,0.01,VWS V14.01,2013-01-12 14:01:00,
2013-01-12 09:06:00,55.5,50.4,30.20,NW,321,0.0,0.0,83,0.00,,SKC,0.01,VWS V14.01,2013-01-12 14:06:00,
2013-01-12 09:11:00,55.7,50.6,30.20,WSW,242,0.0,0.0,83,0.00,,SKC,0.01,VWS V14.01,2013-01-12 14:11:00,
2013-01-12 09:17:00,56.0,50.9,30.20,WSW,242,0.0,0.0,83,0.00,,SKC,0.01,VWS V14.01,2013-01-12 14:17:00,
2013-01-12 09:22:00,56.4,51.3,30.21,WSW,241,0.0,0.0,83,0.00,,SKC,0.01,VWS V14.01,2013-01-12 14:22:00,
2013-01-12 09:28:00,56.7,51.6,30.21,WSW,242,0.0,0.0,83,0.00,,SKC,0.01,VWS V14.01,2013-01-12 14:28:00,
2013-01-12 09:30:00,56.9,51.8,30.21,WSW,242,0.0,0.0,83,0.00,,SKC,0.01,VWS V14.01,2013-01-12 14:30:00,
2013-01-12 09:33:00,57.1,52.0,30.21,WSW,242,0.0,0.0,83,0.00,,SKC,0.01,VWS V14.01,2013-01-12 14:33:00,
2013-01-12 09:38:00,57.5,52.4,30.21,WSW,242,0.0,1.0,83,0.00,,SKC,0.01,VWS V14.01,2013-01-12 14:38:00,
2013-01-12 09:44:00,57.8,52.7,30.21,WSW,246,0.0,1.0,83,0.00,,SKC,0.01,VWS V14.01,2013-01-12 14:44:00,
2013-01-12 09:49:00,58.1,53.0,30.21,SW,229,0.0,1.0,83,0.00,,SKC,0.01,VWS V14.01,2013-01-12 14:49:00,
2013-01-12 09:55:00,58.3,53.2,30.21,WSW,257,0.0,1.0,83,0.00,,SKC,0.01,VWS V14.01,2013-01-12 14:55:00,
2013-01-12 10:00:00,58.4,53.3,30.21,SW,214,0.0,1.0,83,0.00,,SKC,0.01,VWS V14.01,2013-01-12 15:00:00,
2013-01-12 10:06:00,58.6,53.5,30.21,West,274,0.0,2.0,83,0.00,,SKC,0.01,VWS V14.01,2013-01-12 15:06:00,
2013-01-12 10:11:00,58.9,53.4,30.21,West,274,0.0,2.0,82,0.00,,SKC,0.01,VWS V14.01,2013-01-12 15:11:00,
2013-01-12 10:16:00,59.1,53.6,30.21,South,174,1.0,2.0,82,0.00,,SKC,0.01,VWS V14.01,2013-01-12 15:16:00,
2013-01-12 10:22:00,59.4,53.9,30.21,WSW,246,0.0,2.0,82,0.00,,SKC,0.01,VWS V14.01,2013-01-12 15:22:00,
2013-01-12 10:27:00,59.7,53.9,30.21,SSE,162,0.0,2.0,81,0.00,,SKC,0.01,VWS V14.01,2013-01-12 15:27:00,
2013-01-12 10:30:00,59.8,54.0,30.21,WSW,257,0.0,2.0,81,0.00,,SKC,0.01,VWS V14.01,2013-01-12 15:30:00,
2013-01-12 10:33:00,60.0,53.8,30.21,West,263,0.0,1.0,80,0.00,,SKC,0.01,VWS V14.01,2013-01-12 15:33:00,
2013-01-12 10:38:00,60.3,54.1,30.21,WSW,238,0.0,1.0,80,0.00,,SKC,0.01,VWS V14.01,2013-01-12 15:38:00,
2013-01-12 10:43:00,60.8,54.3,30.21,SW,225,1.0,1.0,79,0.00,,SKC,0.01,VWS V14.01,2013-01-12 15:43:00,
2013-01-12 10:49:00,61.3,54.7,30.21,WSW,239,0.0,1.0,79,0.00,,SKC,0.01,VWS V14.01,2013-01-12 15:49:00,
2013-01-12 10:54:00,62.2,55.3,30.20,WSW,246,2.0,2.0,78,0.00,,SKC,0.01,VWS V14.01,2013-01-12 15:54:00,
2013-01-12 11:00:00,62.6,56.7,30.20,WNW,290,0.0,0.0,81,0.00,,SKC,0.01,VWS V14.01,2013-01-12 16:00:00,
2013-01-12 11:05:00,63.2,58.0,30.20,ESE,118,1.0,2.0,83,0.00,,SKC,0.01,VWS V14.01,2013-01-12 16:05:00,
2013-01-12 11:11:00,63.6,59.7,30.20,SE,138,0.0,3.0,87,0.00,,SKC,0.01,VWS V14.01,2013-01-12 16:11:00,
2013-01-12 11:16:00,64.1,60.5,30.20,WNW,298,0.0,3.0,88,0.00,,SKC,0.01,VWS V14.01,2013-01-12 16:16:00,
2013-01-12 11:21:00,64.5,60.9,30.19,West,274,0.0,3.0,88,0.00,,SKC,0.01,VWS V14.01,2013-01-12 16:21:00,
2013-01-12 11:27:00,64.8,61.2,30.19,SSW,205,0.0,3.0,88,0.00,,SKC,0.01,VWS V14.01,2013-01-12 16:27:00,
2013-01-12 11:30:00,65.0,61.4,30.19,SSE,156,1.0,3.0,88,0.00,,SKC,0.01,VWS V14.01,2013-01-12 16:30:00,
2013-01-12 11:32:00,65.3,61.7,30.19,West,267,1.0,2.0,88,0.00,,SKC,0.01,VWS V14.01,2013-01-12 16:32:00,
2013-01-12 11:38:00,65.7,61.7,30.19,West,274,1.0,2.0,87,0.00,,SKC,0.01,VWS V14.01,2013-01-12 16:38:00,
2013-01-12 11:43:00,66.1,62.1,30.18,WNW,284,0.0,2.0,87,0.00,,SKC,0.01,VWS V14.01,2013-01-12 16:43:00,
2013-01-12 11:49:00,66.5,62.2,30.18,WNW,295,1.0,3.0,86,0.00,,SKC,0.01,VWS V14.01,2013-01-12 16:49:00,
2013-01-12 11:54:00,66.8,62.2,30.18,West,279,2.0,3.0,85,0.00,,SKC,0.01,VWS V14.01,2013-01-12 16:54:00,
2013-01-12 11:59:00,67.0,62.0,30.17,SSE,153,0.0,3.0,84,0.00,,SKC,0.01,VWS V14.01,2013-01-12 16:59:00,
2013-01-12 12:00:00,67.0,62.0,30.18,WNW,284,1.0,3.0,84,0.00,,SKC,0.01,VWS V14.01,2013-01-12 17:00:00,
2013-01-12 12:05:00,67.0,62.3,30.17,WSW,255,2.0,3.0,85,0.00,,SKC,0.01,VWS V14.01,2013-01-12 17:05:00,
2013-01-12 12:10:00,67.2,62.2,30.17,WSW,255,1.0,3.0,84,0.00,,SKC,0.01,VWS V14.01,2013-01-12 17:10:00,
2013-01-12 12:16:00,67.5,62.5,30.17,WNW,290,1.0,3.0,84,0.00,,SKC,0.01,VWS V14.01,2013-01-12 17:16:00,
2013-01-12 12:21:00,67.8,62.5,30.17,WNW,283,1.0,3.0,83,0.00,,SKC,0.01,VWS V14.01,2013-01-12 17:21:00,
2013-01-12 12:27:00,68.2,63.2,30.17,West,276,0.0,3.0,84,0.00,,SKC,0.01,VWS V14.01,2013-01-12 17:27:00,
2013-01-12 12:30:00,68.3,62.9,30.17,WSW,252,0.0,3.0,83,0.00,,SKC,0.01,VWS V14.01,2013-01-12 17:30:00,
2013-01-12 12:34:00,68.6,62.9,30.17,SW,235,1.0,3.0,82,0.00,,SKC,0.01,VWS V14.01,2013-01-12 17:34:00,
2013-01-12 12:40:00,69.0,63.3,30.17,WNW,293,1.0,3.0,82,0.00,,SKC,0.01,VWS V14.01,2013-01-12 17:40:00,
2013-01-12 12:45:00,69.5,63.1,30.16,SE,139,1.0,3.0,80,0.00,,SKC,0.01,VWS V14.01,2013-01-12 17:45:00,
2013-01-12 12:51:00,70.0,63.5,30.16,NW,319,1.0,3.0,80,0.00,,SKC,0.01,VWS V14.01,2013-01-12 17:51:00,
2013-01-12 12:56:00,70.6,63.8,30.16,WSW,255,2.0,3.0,79,0.00,,SKC,0.01,VWS V14.01,2013-01-12 17:56:00,
2013-01-12 13:00:00,70.9,63.7,30.16,WSW,243,0.0,3.0,78,0.00,,SKC,0.01,VWS V14.01,2013-01-12 18:00:00,
2013-01-12 13:01:00,71.1,64.3,30.16,West,270,0.0,1.0,79,0.00,,SKC,0.01,VWS V14.01,2013-01-12 18:01:00,
2013-01-12 13:07:00,71.5,63.9,30.16,WNW,283,3.0,3.0,77,0.00,,SKC,0.01,VWS V14.01,2013-01-12 18:07:00,
2013-01-12 13:12:00,71.6,63.6,30.16,SSW,211,1.0,4.0,76,0.00,,SKC,0.01,VWS V14.01,2013-01-12 18:12:00,
2013-01-12 13:17:00,71.5,63.2,30.16,WSW,251,0.0,4.0,75,0.00,,SKC,0.01,VWS V14.01,2013-01-12 18:17:00,
2013-01-12 13:23:00,71.6,62.1,30.16,West,273,1.0,4.0,72,0.00,,SKC,0.01,VWS V14.01,2013-01-12 18:23:00,
2013-01-12 13:28:00,71.5,62.8,30.16,SW,214,2.0,4.0,74,0.00,,SKC,0.01,VWS V14.01,2013-01-12 18:28:00,
2013-01-12 13:30:00,71.4,62.3,30.16,WSW,252,2.0,4.0,73,0.00,,SKC,0.01,VWS V14.01,2013-01-12 18:30:00,
2013-01-12 13:34:00,71.3,62.6,30.16,North,9,1.0,2.0,74,0.00,,SKC,0.01,VWS V14.01,2013-01-12 18:34:00,
2013-01-12 13:39:00,71.1,62.4,30.16,West,280,1.0,3.0,74,0.00,,SKC,0.01,VWS V14.01,2013-01-12 18:39:00,
2013-01-12 13:44:00,71.2,62.5,30.16,WSW,252,1.0,3.0,74,0.00,,SKC,0.01,VWS V14.01,2013-01-12 18:44:00,
2013-01-12 13:51:00,71.2,62.1,30.16,SSE,154,0.0,3.0,73,0.00,,SKC,0.01,VWS V14.01,2013-01-12 18:51:00,
2013-01-12 13:57:00,71.3,62.2,30.15,West,262,1.0,3.0,73,0.00,,SKC,0.01,VWS V14.01,2013-01-12 18:57:00,
2013-01-12 14:00:00,71.5,62.4,30.15,West,274,1.0,5.0,73,0.00,,SKC,0.01,VWS V14.01,2013-01-12 19:00:00,
2013-01-12 14:02:00,71.6,61.7,30.15,West,264,0.0,2.0,71,0.00,,SKC,0.01,VWS V14.01,2013-01-12 19:02:00,
2013-01-12 14:07:00,71.7,61.0,30.15,NW,309,3.0,3.0,69,0.00,,SKC,0.01,VWS V14.01,2013-01-12 19:07:00,
2013-01-12 14:13:00,71.6,60.5,30.15,East,79,2.0,4.0,68,0.00,,SKC,0.01,VWS V14.01,2013-01-12 19:13:00,
2013-01-12 14:18:00,71.2,60.1,30.15,SW,226,0.0,4.0,68,0.00,,SKC,0.01,VWS V14.01,2013-01-12 19:18:00,
2013-01-12 14:24:00,71.1,60.0,30.15,ESE,107,1.0,4.0,68,0.00,,SKC,0.01,VWS V14.01,2013-01-12 19:24:00,
2013-01-12 14:29:00,71.1,60.4,30.15,SSE,160,0.0,4.0,69,0.00,,SKC,0.01,VWS V14.01,2013-01-12 19:29:00,
2013-01-12 14:30:00,71.1,60.0,30.15,WNW,290,1.0,4.0,68,0.00,,SKC,0.01,VWS V14.01,2013-01-12 19:30:00,
2013-01-12 14:34:00,71.3,60.6,30.15,SW,235,2.0,3.0,69,0.00,,SKC,0.01,VWS V14.01,2013-01-12 19:34:00,
2013-01-12 14:40:00,71.1,59.6,30.15,WSW,248,0.0,4.0,67,0.00,,SKC,0.01,VWS V14.01,2013-01-12 19:40:00,
2013-01-12 14:45:00,70.7,58.8,30.15,West,266,1.0,4.0,66,0.00,,SKC,0.01,VWS V14.01,2013-01-12 19:45:00,
2013-01-12 14:50:00,70.3,58.4,30.15,West,261,0.0,4.0,66,0.00,,SKC,0.01,VWS V14.01,2013-01-12 19:50:00,
2013-01-12 14:56:00,70.2,58.7,30.15,West,270,0.0,4.0,67,0.00,,SKC,0.01,VWS V14.01,2013-01-12 19:56:00,
2013-01-12 15:00:00,70.1,58.7,30.14,South,173,3.0,4.0,67,0.00,,SKC,0.01,VWS V14.01,2013-01-12 20:00:00,
2013-01-12 15:01:00,70.0,58.5,30.15,SW,214,1.0,3.0,67,0.00,,SKC,0.01,VWS V14.01,2013-01-12 20:01:00,
2013-01-12 15:07:00,69.8,58.8,30.14,WNW,300,1.0,3.0,68,0.00,,SKC,0.01,VWS V14.01,2013-01-12 20:07:00,
2013-01-12 15:12:00,69.7,59.1,30.14,WSW,257,1.0,3.0,69,0.00,,SKC,0.01,VWS V14.01,2013-01-12 20:12:00,
2013-01-12 15:18:00,69.4,59.6,30.15,WSW,243,0.0,3.0,71,0.00,,SKC,0.01,VWS V14.01,2013-01-12 20:18:00,
2013-01-12 15:23:00,69.2,59.0,30.15,WSW,256,0.0,3.0,70,0.00,,SKC,0.01,VWS V14.01,2013-01-12 20:23:00,
2013-01-12 15:28:00,69.1,59.3,30.15,West,276,0.0,3.0,71,0.00,,SKC,0.01,VWS V14.01,2013-01-12 20:28:00,
2013-01-12 15:30:00,69.0,58.8,30.15,WNW,294,0.0,3.0,70,0.00,,SKC,0.01,VWS V14.01,2013-01-12 20:30:00,
2013-01-12 15:34:00,69.0,59.2,30.15,SSE,148,0.0,1.0,71,0.00,,SKC,0.01,VWS V14.01,2013-01-12 20:34:00,
2013-01-12 15:39:00,68.8,59.0,30.15,WSW,248,0.0,1.0,71,0.00,,SKC,0.01,VWS V14.01,2013-01-12 20:39:00,
2013-01-12 15:45:00,68.6,58.8,30.15,WSW,252,1.0,2.0,71,0.00,,SKC,0.01,VWS V14.01,2013-01-12 20:45:00,
2013-01-12 15:50:00,68.4,58.6,30.15,WSW,256,0.0,2.0,71,0.00,,SKC,0.01,VWS V14.01,2013-01-12 20:50:00,
2013-01-12 15:56:00,68.3,58.5,30.15,West,268,0.0,2.0,71,0.00,,SKC,0.01,VWS V14.01,2013-01-12 20:56:00,
2013-01-12 16:00:00,68.2,58.8,30.15,WSW,245,0.0,2.0,72,0.00,,SKC,0.01,VWS V14.01,2013-01-12 21:00:00,
2013-01-12 16:01:00,68.2,58.8,30.15,SSW,193,0.0,0.0,72,0.00,,SKC,0.01,VWS V14.01,2013-01-12 21:01:00,
2013-01-12 16:06:00,68.1,59.1,30.15,SSW,200,0.0,0.0,73,0.00,,SKC,0.01,VWS V14.01,2013-01-12 21:06:00,
2013-01-12 16:12:00,68.0,59.0,30.15,SW,215,0.0,1.0,73,0.00,,SKC,0.01,VWS V14.01,2013-01-12 21:12:00,
2013-01-12 16:17:00,67.9,58.5,30.15,West,264,1.0,2.0,72,0.00,,SKC,0.01,VWS V14.01,2013-01-12 21:17:00,
2013-01-12 16:23:00,67.8,58.5,30.15,SSW,193,0.0,2.0,72,0.00,,SKC,0.01,VWS V14.01,2013-01-12 21:23:00,
2013-01-12 16:28:00,67.7,58.7,30.15,SSW,194,0.0,2.0,73,0.00,,SKC,0.01,VWS V14.01,2013-01-12 21:28:00,
2013-01-12 16:30:00,67.7,58.7,30.15,SSW,194,0.0,2.0,73,0.00,,SKC,0.01,VWS V14.01,2013-01-12 21:30:00,
2013-01-12 16:34:00,67.6,58.7,30.15,SSW,203,0.0,1.0,73,0.00,,SKC,0.01,VWS V14.01,2013-01-12 21:34:00,
2013-01-12 16:39:00,67.6,59.0,30.15,SSW,195,1.0,1.0,74,0.00,,SKC,0.01,VWS V14.01,2013-01-12 21:39:00,
2013-01-12 16:44:00,67.5,58.9,30.15,West,260,1.0,1.0,74,0.00,,SKC,0.01,VWS V14.01,2013-01-12 21:44:00,
2013-01-12 16:50:00,67.4,58.8,30.15,SW,231,0.0,2.0,74,0.00,,SKC,0.01,VWS V14.01,2013-01-12 21:50:00,
2013-01-12 16:55:00,67.3,58.7,30.15,WSW,243,1.0,2.0,74,0.00,,SKC,0.01,VWS V14.01,2013-01-12 21:55:00,
2013-01-12 17:00:00,67.3,59.1,30.15,South,172,0.0,2.0,75,0.00,,SKC,0.01,VWS V14.01,2013-01-12 22:00:00,
2013-01-12 17:01:00,67.2,59.0,30.15,South,172,0.0,0.0,75,0.00,,SKC,0.01,VWS V14.01,2013-01-12 22:01:00,
2013-01-12 17:06:00,67.1,58.9,30.15,SSW,210,0.0,1.0,75,0.00,,SKC,0.01,VWS V14.01,2013-01-12 22:06:00,
2013-01-12 17:11:00,66.9,59.1,30.14,SSW,197,0.0,1.0,76,0.00,,SKC,0.01,VWS V14.01,2013-01-12 22:11:00,
2013-01-12 17:17:00,66.7,58.9,30.14,SSW,199,0.0,1.0,76,0.00,,SKC,0.01,VWS V14.01,2013-01-12 22:17:00,
2013-01-12 17:22:00,66.5,59.1,30.14,SSW,198,0.0,1.0,77,0.00,,SKC,0.01,VWS V14.01,2013-01-12 22:22:00,
2013-01-12 17:28:00,66.3,58.9,30.14,SSW,199,0.0,1.0,77,0.00,,SKC,0.01,VWS V14.01,2013-01-12 22:28:00,
2013-01-12 17:30:00,66.1,59.0,30.14,SSW,198,0.0,1.0,78,0.00,,SKC,0.01,VWS V14.01,2013-01-12 22:30:00,
2013-01-12 17:33:00,66.0,59.0,30.14,SSW,198,0.0,0.0,78,0.00,,SKC,0.01,VWS V14.01,2013-01-12 22:33:00,
2013-01-12 17:39:00,65.7,58.7,30.14,SSW,199,0.0,0.0,78,0.00,,SKC,0.01,VWS V14.01,2013-01-12 22:39:00,
2013-01-12 17:44:00,65.4,58.7,30.14,SSW,198,0.0,0.0,79,0.00,,SKC,0.01,VWS V14.01,2013-01-12 22:44:00,
2013-01-12 17:50:00,65.1,58.8,30.14,SSW,198,0.0,0.0,80,0.00,,SKC,0.01,VWS V14.01,2013-01-12 22:50:00,
2013-01-12 17:55:00,64.7,58.4,30.14,SSW,199,0.0,0.0,80,0.00,,SKC,0.01,VWS V14.01,2013-01-12 22:55:00,
2013-01-12 18:00:00,64.3,58.3,30.14,SSW,199,0.0,0.0,81,0.00,,SKC,0.01,VWS V14.01,2013-01-12 23:00:00,
2013-01-12 18:06:00,63.9,58.0,30.14,SSW,198,0.0,0.0,81,0.00,,SKC,0.01,VWS V14.01,2013-01-12 23:06:00,
2013-01-12 18:11:00,63.7,58.1,30.14,SSW,199,0.0,0.0,82,0.00,,SKC,0.01,VWS V14.01,2013-01-12 23:11:00,
2013-01-12 18:17:00,63.5,57.9,30.14,SSW,198,0.0,0.0,82,0.00,,SKC,0.01,VWS V14.01,2013-01-12 23:17:00,
2013-01-12 18:22:00,63.3,58.1,30.14,SSW,198,0.0,0.0,83,0.00,,SKC,0.01,VWS V14.01,2013-01-12 23:22:00,
2013-01-12 18:28:00,63.1,57.9,30.14,SSW,198,0.0,0.0,83,0.00,,SKC,0.01,VWS V14.01,2013-01-12 23:28:00,
2013-01-12 18:30:00,63.1,57.9,30.14,SSW,199,0.0,0.0,83,0.00,,SKC,0.01,VWS V14.01,2013-01-12 23:30:00,
2013-01-12 18:33:00,62.9,58.0,30.14,SSW,198,0.0,0.0,84,0.00,,SKC,0.01,VWS V14.01,2013-01-12 23:33:00,
2013-01-12 18:39:00,62.7,57.8,30.14,SSW,198,0.0,0.0,84,0.00,,SKC,0.01,VWS V14.01,2013-01-12 23:39:00,
2013-01-12 18:44:00,62.3,57.4,30.14,SSW,198,0.0,0.0,84,0.00,,SKC,0.01,VWS V14.01,2013-01-12 23:44:00,
2013-01-12 18:49:00,62.0,57.5,30.14,SSW,198,0.0,0.0,85,0.00,,SKC,0.01,VWS V14.01,2013-01-12 23:49:00,
2013-01-12 18:55:00,61.7,57.5,30.13,SSW,198,0.0,0.0,86,0.00,,SKC,0.01,VWS V14.01,2013-01-12 23:55:00,
2013-01-12 19:00:00,61.4,57.2,30.14,SSW,198,0.0,0.0,86,0.00,,SKC,0.01,VWS V14.01,2013-01-13 00:00:00,
2013-01-12 19:06:00,61.0,56.8,30.14,SSW,198,0.0,0.0,86,0.00,,SKC,0.01,VWS V14.01,2013-01-13 00:06:00,
2013-01-12 19:11:00,60.8,56.9,30.14,SSW,199,0.0,0.0,87,0.00,,SKC,0.01,VWS V14.01,2013-01-13 00:11:00,
2013-01-12 19:17:00,60.5,56.6,30.14,SSW,198,0.0,0.0,87,0.00,,SKC,0.01,VWS V14.01,2013-01-13 00:17:00,
2013-01-12 19:22:00,60.4,56.5,30.14,SSW,198,0.0,0.0,87,0.00,,SKC,0.01,VWS V14.01,2013-01-13 00:22:00,
2013-01-12 19:27:00,60.2,56.3,30.14,SSW,198,0.0,0.0,87,0.00,,SKC,0.01,VWS V14.01,2013-01-13 00:27:00,
2013-01-12 19:30:00,60.2,56.3,30.14,SSW,198,0.0,0.0,87,0.00,,SKC,0.01,VWS V14.01,2013-01-13 00:30:00,
2013-01-12 19:33:00,60.3,56.4,30.14,SSW,198,0.0,0.0,87,0.00,,SKC,0.01,VWS V14.01,2013-01-13 00:33:00,
2013-01-12 19:38:00,60.5,56.3,30.14,SSW,199,0.0,0.0,86,0.00,,SKC,0.01,VWS V14.01,2013-01-13 00:38:00,
2013-01-12 19:44:00,60.8,56.6,30.14,SSW,198,0.0,0.0,86,0.00,,SKC,0.01,VWS V14.01,2013-01-13 00:44:00,
2013-01-12 19:49:00,61.0,57.1,30.14,SSW,199,0.0,0.0,87,0.00,,SKC,0.01,VWS V14.01,2013-01-13 00:49:00,
2013-01-12 19:55:00,61.0,57.1,30.13,SSW,199,0.0,0.0,87,0.00,,SKC,0.01,VWS V14.01,2013-01-13 00:55:00,
2013-01-12 20:00:00,60.9,57.0,30.13,SSW,198,0.0,0.0,87,0.00,,SKC,0.01,VWS V14.01,2013-01-13 01:00:00,
2013-01-12 20:05:00,60.8,56.9,30.13,SSW,199,0.0,0.0,87,0.00,,SKC,0.01,VWS V14.01,2013-01-13 01:05:00,
2013-01-12 20:11:00,60.9,56.7,30.13,SSW,199,0.0,0.0,86,0.00,,SKC,0.01,VWS V14.01,2013-01-13 01:11:00,
2013-01-12 20:17:00,60.9,57.0,30.13,SSW,199,0.0,0.0,87,0.00,,SKC,0.01,VWS V14.01,2013-01-13 01:17:00,
2013-01-12 20:22:00,61.0,57.1,30.13,SSW,198,0.0,0.0,87,0.00,,SKC,0.01,VWS V14.01,2013-01-13 01:22:00,
2013-01-12 20:27:00,60.8,56.9,30.13,SSW,198,0.0,0.0,87,0.00,,SKC,0.01,VWS V14.01,2013-01-13 01:27:00,
2013-01-12 20:30:00,60.7,56.8,30.13,SSW,198,0.0,0.0,87,0.00,,SKC,0.01,VWS V14.01,2013-01-13 01:30:00,
2013-01-12 20:33:00,60.5,56.6,30.13,SSW,198,0.0,0.0,87,0.00,,SKC,0.01,VWS V14.01,2013-01-13 01:33:00,
2013-01-12 20:38:00,60.2,56.3,30.13,SSW,198,0.0,0.0,87,0.00,,SKC,0.01,VWS V14.01,2013-01-13 01:38:00,
2013-01-12 20:44:00,59.9,56.0,30.13,SSW,199,0.0,0.0,87,0.00,,SKC,0.01,VWS V14.01,2013-01-13 01:44:00,
2013-01-12 20:49:00,59.7,55.8,30.13,SSW,198,0.0,0.0,87,0.00,,SKC,0.01,VWS V14.01,2013-01-13 01:49:00,
2013-01-12 20:55:00,59.5,55.6,30.13,SSW,198,0.0,0.0,87,0.00,,SKC,0.01,VWS V14.01,2013-01-13 01:55:00,
2013-01-12 21:00:00,59.4,55.5,30.13,SSW,198,0.0,0.0,87,0.00,,SKC,0.01,VWS V14.01,2013-01-13 02:00:00,
2013-01-12 21:05:00,59.3,55.4,30.13,SSW,198,0.0,0.0,87,0.00,,SKC,0.01,VWS V14.01,2013-01-13 02:05:00,
2013-01-12 21:11:00,59.2,55.0,30.13,SSW,199,0.0,0.0,86,0.00,,SKC,0.01,VWS V14.01,2013-01-13 02:11:00,
2013-01-12 21:16:00,59.0,55.1,30.13,SSW,198,0.0,0.0,87,0.00,,SKC,0.01,VWS V14.01,2013-01-13 02:16:00,
2013-01-12 21:22:00,58.8,54.6,30.13,SSW,198,0.0,0.0,86,0.00,,SKC,0.01,VWS V14.01,2013-01-13 02:22:00,
2013-01-12 21:27:00,58.6,54.8,30.13,SSW,199,0.0,0.0,87,0.00,,SKC,0.01,VWS V14.01,2013-01-13 02:27:00,
2013-01-12 21:30:00,58.5,54.7,30.13,SSW,198,0.0,0.0,87,0.00,,SKC,0.01,VWS V14.01,2013-01-13 02:30:00,
2013-01-12 21:33:00,58.3,54.5,30.13,SSW,198,0.0,0.0,87,0.00,,SKC,0.01,VWS V14.01,2013-01-13 02:33:00,
2013-01-12 21:38:00,57.9,54.1,30.13,SSW,199,0.0,0.0,87,0.00,,SKC,0.01,VWS V14.01,2013-01-13 02:38:00,
2013-01-12 21:43:00,57.8,53.3,30.13,SSW,199,0.0,0.0,85,0.00,,SKC,0.01,VWS V14.01,2013-01-13 02:43:00,
2013-01-12 21:49:00,57.7,53.2,30.13,SSW,198,0.0,0.0,85,0.00,,SKC,0.01,VWS V14.01,2013-01-13 02:49:00,
2013-01-12 21:54:00,57.8,52.3,30.13,SSW,199,0.0,0.0,82,0.00,,SKC,0.01,VWS V14.01,2013-01-13 02:54:00,
2013-01-12 22:00:00,57.9,52.1,30.13,SSW,198,0.0,0.0,81,0.00,,SKC,0.01,VWS V14.01,2013-01-13 03:00:00,
2013-01-12 22:05:00,57.9,52.1,30.12,SSW,199,0.0,0.0,81,0.00,,SKC,0.01,VWS V14.01,2013-01-13 03:05:00,
2013-01-12 22:11:00,57.8,52.3,30.12,SSW,198,0.0,0.0,82,0.00,,SKC,0.01,VWS V14.01,2013-01-13 03:11:00,
2013-01-12 22:16:00,57.6,52.2,30.13,SSW,199,0.0,0.0,82,0.00,,SKC,0.01,VWS V14.01,2013-01-13 03:16:00,
2013-01-12 22:22:00,57.5,52.1,30.12,SSW,199,0.0,0.0,82,0.00,,SKC,0.01,VWS V14.01,2013-01-13 03:22:00,
2013-01-12 22:27:00,57.5,51.7,30.12,SSW,198,0.0,0.0,81,0.00,,SKC,0.01,VWS V14.01,2013-01-13 03:27:00,
2013-01-12 22:30:00,57.5,51.7,30.12,SSW,199,0.0,0.0,81,0.00,,SKC,0.01,VWS V14.01,2013-01-13 03:30:00,
2013-01-12 22:32:00,57.5,51.4,30.12,SSW,199,0.0,0.0,80,0.00,,SKC,0.01,VWS V14.01,2013-01-13 03:32:00,
2013-01-12 22:38:00,57.4,51.6,30.12,SSW,198,0.0,0.0,81,0.00,,SKC,0.01,VWS V14.01,2013-01-13 03:38:00,
2013-01-12 22:43:00,57.4,51.3,30.12,SSW,198,0.0,0.0,80,0.00,,SKC,0.01,VWS V14.01,2013-01-13 03:43:00,
2013-01-12 22:49:00,57.4,51.0,30.12,SSW,198,0.0,0.0,79,0.00,,SKC,0.01,VWS V14.01,2013-01-13 03:49:00,
2013-01-12 22:54:00,57.3,51.2,30.12,SSW,198,0.0,0.0,80,0.00,,SKC,0.01,VWS V14.01,2013-01-13 03:54:00,
2013-01-12 22:59:00,57.2,51.4,30.12,SSW,198,0.0,0.0,81,0.00,,SKC,0.01,VWS V14.01,2013-01-13 03:59:00,
2013-01-12 23:00:00,57.2,51.4,30.12,SSW,198,0.0,0.0,81,0.00,,SKC,0.01,VWS V14.01,2013-01-13 04:00:00,
2013-01-12 23:05:00,57.0,51.2,30.12,SSW,198,0.0,0.0,81,0.00,,SKC,0.01,VWS V14.01,2013-01-13 04:05:00,
2013-01-12 23:10:00,57.0,50.9,30.12,SSW,198,0.0,0.0,80,0.00,,SKC,0.01,VWS V14.01,2013-01-13 04:10:00,
2013-01-12 23:16:00,57.1,51.0,30.12,SSW,198,0.0,0.0,80,0.00,,SKC,0.01,VWS V14.01,2013-01-13 04:16:00,
2013-01-12 23:21:00,57.2,50.8,30.12,SSW,198,0.0,0.0,79,0.00,,SKC,0.01,VWS V14.01,2013-01-13 04:21:00,
2013-01-12 23:27:00,57.1,51.0,30.12,SSW,198,0.0,0.0,80,0.00,,SKC,0.01,VWS V14.01,2013-01-13 04:27:00,
2013-01-12 23:30:00,57.1,51.0,30.13,SSW,198,0.0,0.0,80,0.00,,SKC,0.01,VWS V14.01,2013-01-13 04:30:00,
2013-01-12 23:32:00,57.0,50.9,30.13,SSW,199,0.0,0.0,80,0.00,,SKC,0.01,VWS V14.01,2013-01-13 04:32:00,
2013-01-12 23:37:00,56.9,51.1,30.13,SSW,199,0.0,0.0,81,0.00,,SKC,0.01,VWS V14.01,2013-01-13 04:37:00,
2013-01-12 23:43:00,56.8,51.0,30.13,SSW,198,0.0,0.0,81,0.00,,SKC,0.01,VWS V14.01,2013-01-13 04:43:00,
2013-01-12 23:49:00,56.7,50.9,30.12,SSW,198,0.0,0.0,81,0.00,,SKC,0.01,VWS V14.01,2013-01-13 04:49:00,
2013-01-12 23:54:00,56.6,50.8,30.12,SSW,199,0.0,0.0,81,0.00,,SKC,0.01,VWS V14.01,2013-01-13 04:54:00,
2013-01-12 23:59:00,56.5,50.4,30.12,SSW,199,0.0,0.0,80,0.00,,SKC,0.00,VWS V14.01,2013-01-13 04:59:00,